Time,TemperatureF,DewpointF,PressureIn,WindDirection,WindDirectionDegrees,WindSpeedMPH,WindSpeedGustMPH,Humidity,HourlyPrecipIn,Conditions,Clouds,dailyrainin,SolarRadiationWatts/m^2,SoftwareType,DateUTC
2013-01-31 00:02:00,56.2,53.0,29.31,West,263,8.0,8.0,89,0.09,,,0.00,0,Wunderground v.1.15,2013-01-31 05:02:00,
2013-01-31 00:04:00,56.0,52.8,29.31,WNW,288,8.0,8.0,89,0.10,,,0.01,0,Wunderground v.1.15,2013-01-31 05:04:00,
2013-01-31 00:10:00,55.6,52.4,29.31,WNW,298,7.0,10.0,89,0.09,,,0.02,0,Wunderground v.1.15,2013-01-31 05:10:00,
2013-01-31 00:16:00,55.1,51.9,29.29,WNW,294,9.0,10.0,89,0.09,,,0.03,0,Wunderground v.1.15,2013-01-31 05:16:00,
2013-01-31 00:22:00,54.6,51.4,29.31,WSW,254,8.0,11.0,89,0.09,,,0.03,0,Wunderground v.1.15,2013-01-31 05:22:00,
2013-01-31 00:24:00,54.4,51.2,29.32,WSW,238,8.0,11.0,89,0.08,,,0.04,0,Wunderground v.1.15,2013-01-31 05:24:00,
2013-01-31 00:30:00,54.1,51.2,29.32,WNW,292,7.0,7.0,90,0.09,,,0.05,0,Wunderground v.1.15,2013-01-31 05:30:00,
2013-01-31 00:36:00,53.7,51.1,29.31,West,280,5.0,7.0,91,0.09,,,0.05,0,Wunderground v.1.15,2013-01-31 05:36:00,
2013-01-31 00:42:00,53.3,50.7,29.31,West,261,6.0,7.0,91,0.08,,,0.06,0,Wunderground v.1.15,2013-01-31 05:42:00,
2013-01-31 00:50:00,53.1,50.8,29.32,SW,218,6.0,8.0,92,0.09,,,0.07,0,Wunderground v.1.15,2013-01-31 05:50:00,
2013-01-31 00:56:00,53.0,50.7,29.32,West,261,7.0,9.0,92,0.07,,,0.08,0,Wunderground v.1.15,2013-01-31 05:56:00,
2013-01-31 01:02:00,52.9,50.6,29.31,WSW,253,7.0,8.0,92,0.08,,,0.09,0,Wunderground v.1.15,2013-01-31 06:02:00,
2013-01-31 01:09:00,52.7,50.1,29.31,WSW,252,6.0,10.0,91,0.07,,,0.09,0,Wunderground v.1.15,2013-01-31 06:09:00,
2013-01-31 01:14:00,52.6,50.0,29.30,SSW,199,7.0,14.0,91,0.07,,,0.10,0,Wunderground v.1.15,2013-01-31 06:14:00,
2013-01-31 01:20:00,52.5,49.9,29.31,SW,219,8.0,8.0,91,0.08,,,0.11,0,Wunderground v.1.15,2013-01-31 06:20:00,
2013-01-31 01:26:00,52.3,49.8,29.30,SSW,196,8.0,9.0,91,0.06,,,0.12,0,Wunderground v.1.15,2013-01-31 06:26:00,
2013-01-31 01:32:00,52.1,49.6,29.30,West,270,6.0,7.0,91,0.06,,,0.12,0,Wunderground v.1.15,2013-01-31 06:32:00,
2013-01-31 01:39:00,52.1,49.6,29.30,SW,215,7.0,9.0,91,0.08,,,0.13,0,Wunderground v.1.15,2013-01-31 06:39:00,
2013-01-31 01:44:00,52.1,49.3,29.31,SW,219,9.0,9.0,90,0.06,,,0.14,0,Wunderground v.1.15,2013-01-31 06:44:00,
2013-01-31 01:50:00,52.1,48.7,29.31,SW,229,9.0,9.0,88,0.06,,,0.14,0,Wunderground v.1.15,2013-01-31 06:50:00,
2013-01-31 01:56:00,52.1,48.7,29.31,WNW,292,7.0,11.0,88,0.07,,,0.15,0,Wunderground v.1.15,2013-01-31 06:56:00,
2013-01-31 02:02:00,52.1,48.0,29.30,West,265,7.0,15.0,86,0.06,,,0.15,0,Wunderground v.1.15,2013-01-31 07:02:00,
2013-01-31 02:09:00,52.1,47.7,29.29,West,266,9.0,16.0,85,0.06,,,0.16,0,Wunderground v.1.15,2013-01-31 07:09:00,
2013-01-31 02:14:00,51.8,47.4,29.29,SW,223,9.0,12.0,85,0.08,,,0.17,0,Wunderground v.1.15,2013-01-31 07:14:00,
2013-01-31 02:20:00,51.7,47.6,29.31,WSW,237,9.0,9.0,86,0.06,,,0.17,0,Wunderground v.1.15,2013-01-31 07:20:00,
2013-01-31 02:26:00,51.5,47.5,29.30,WNW,282,8.0,12.0,86,0.05,,,0.18,0,Wunderground v.1.15,2013-01-31 07:26:00,
2013-01-31 02:32:00,51.5,47.5,29.31,WSW,252,8.0,9.0,86,0.07,,,0.19,0,Wunderground v.1.15,2013-01-31 07:32:00,
2013-01-31 02:39:00,51.4,47.4,29.31,NW,312,8.0,9.0,86,0.06,,,0.19,0,Wunderground v.1.15,2013-01-31 07:39:00,
2013-01-31 02:44:00,51.2,46.8,29.32,WSW,254,6.0,8.0,85,0.05,,,0.20,0,Wunderground v.1.15,2013-01-31 07:44:00,
2013-01-31 02:50:00,51.1,46.4,29.32,SW,217,6.0,6.0,84,0.05,,,0.20,0,Wunderground v.1.15,2013-01-31 07:50:00,
2013-01-31 02:56:00,51.0,45.7,29.32,SW,229,8.0,13.0,82,0.06,,,0.21,0,Wunderground v.1.15,2013-01-31 07:56:00,
2013-01-31 03:02:00,50.8,45.2,29.32,West,263,9.0,13.0,81,0.05,,,0.21,0,Wunderground v.1.15,2013-01-31 08:02:00,
2013-01-31 03:09:00,50.4,44.1,29.32,SSW,192,8.0,13.0,79,0.05,,,0.22,0,Wunderground v.1.15,2013-01-31 08:09:00,
2013-01-31 03:14:00,50.3,43.4,29.33,SW,223,8.0,11.0,77,0.05,,,0.22,0,Wunderground v.1.15,2013-01-31 08:14:00,
2013-01-31 03:20:00,49.9,43.0,29.33,WSW,245,7.0,7.0,77,0.05,,,0.23,0,Wunderground v.1.15,2013-01-31 08:20:00,
2013-01-31 03:26:00,49.5,42.2,29.33,SW,234,7.0,14.0,76,0.05,,,0.23,0,Wunderground v.1.15,2013-01-31 08:26:00,
2013-01-31 03:32:00,49.2,41.3,29.34,SW,218,8.0,9.0,74,0.04,,,0.24,0,Wunderground v.1.15,2013-01-31 08:32:00,
2013-01-31 03:39:00,48.8,40.5,29.34,WNW,302,7.0,9.0,73,0.04,,,0.24,0,Wunderground v.1.15,2013-01-31 08:39:00,
2013-01-31 03:44:00,48.8,40.2,29.34,WSW,237,7.0,12.0,72,0.05,,,0.25,0,Wunderground v.1.15,2013-01-31 08:44:00,
2013-01-31 03:50:00,48.7,40.1,29.35,WSW,247,6.0,6.0,72,0.05,,,0.25,0,Wunderground v.1.15,2013-01-31 08:50:00,
2013-01-31 03:56:00,48.7,39.7,29.35,WNW,302,6.0,14.0,71,0.04,,,0.25,0,Wunderground v.1.15,2013-01-31 08:56:00,
2013-01-31 04:02:00,48.6,39.3,29.36,SW,217,8.0,10.0,70,0.04,,,0.26,0,Wunderground v.1.15,2013-01-31 09:02:00,
2013-01-31 04:09:00,48.5,39.5,29.37,West,279,8.0,10.0,71,0.04,,,0.26,0,Wunderground v.1.15,2013-01-31 09:09:00,
2013-01-31 04:14:00,48.3,39.3,29.37,SW,229,7.0,7.0,71,0.05,,,0.27,0,Wunderground v.1.15,2013-01-31 09:14:00,
2013-01-31 04:20:00,48.0,38.7,29.38,WSW,247,7.0,7.0,70,0.05,,,0.27,0,Wunderground v.1.15,2013-01-31 09:20:00,
2013-01-31 04:26:00,47.6,38.3,29.39,NW,313,7.0,11.0,70,0.04,,,0.27,0,Wunderground v.1.15,2013-01-31 09:26:00,
2013-01-31 04:32:00,47.4,38.8,29.40,West,277,6.0,7.0,72,0.04,,,0.28,0,Wunderground v.1.15,2013-01-31 09:32:00,
2013-01-31 04:39:00,47.1,38.2,29.40,NW,317,5.0,9.0,71,0.04,,,0.28,0,Wunderground v.1.15,2013-01-31 09:39:00,
2013-01-31 04:44:00,46.8,38.2,29.41,WSW,256,4.0,8.0,72,0.04,,,0.29,0,Wunderground v.1.15,2013-01-31 09:44:00,
2013-01-31 04:50:00,46.4,37.9,29.42,WSW,242,3.0,3.0,72,0.04,,,0.29,0,Wunderground v.1.15,2013-01-31 09:50:00,
2013-01-31 04:56:00,46.0,37.8,29.42,WNW,287,4.0,14.0,73,0.04,,,0.29,0,Wunderground v.1.15,2013-01-31 09:56:00,
2013-01-31 05:02:00,45.4,37.6,29.43,NNW,329,4.0,4.0,74,0.00,,,0.30,0,Wunderground v.1.15,2013-01-31 10:02:00,
2013-01-31 05:10:00,45.2,36.7,29.44,West,271,6.0,8.0,72,0.00,,,0.30,0,Wunderground v.1.15,2013-01-31 10:10:00,
2013-01-31 05:16:00,45.1,35.9,29.45,NNW,339,6.0,12.0,70,0.04,,,0.31,0,Wunderground v.1.15,2013-01-31 10:16:00,
2013-01-31 05:22:00,45.0,35.8,29.46,West,261,7.0,7.0,70,0.04,,,0.31,0,Wunderground v.1.15,2013-01-31 10:22:00,
2013-01-31 05:29:00,45.0,35.8,29.47,West,278,7.0,7.0,70,0.04,,,0.31,0,Wunderground v.1.15,2013-01-31 10:29:00,
2013-01-31 05:36:00,44.4,34.9,29.47,SW,227,7.0,17.0,69,0.00,,,0.32,0,Wunderground v.1.15,2013-01-31 10:36:00,
2013-01-31 05:42:00,43.9,32.9,29.48,WNW,288,7.0,10.0,65,0.00,,,0.32,0,Wunderground v.1.15,2013-01-31 10:42:00,
2013-01-31 05:49:00,43.3,31.9,29.49,SW,232,8.0,10.0,64,0.00,,,0.32,0,Wunderground v.1.15,2013-01-31 10:49:00,
2013-01-31 05:54:00,43.0,31.6,29.49,West,265,9.0,9.0,64,0.04,,,0.33,0,Wunderground v.1.15,2013-01-31 10:54:00,
2013-01-31 06:01:00,42.5,30.8,29.50,SW,223,9.0,9.0,63,0.04,,,0.33,0,Wunderground v.1.15,2013-01-31 11:01:00,
2013-01-31 06:06:00,42.2,31.3,29.51,West,262,8.0,10.0,65,0.04,,,0.33,0,Wunderground v.1.15,2013-01-31 11:06:00,
2013-01-31 06:12:00,41.7,29.2,29.50,WSW,250,7.0,8.0,61,0.00,,,0.33,0,Wunderground v.1.15,2013-01-31 11:12:00,
2013-01-31 06:20:00,41.4,28.1,29.51,SSE,167,8.0,9.0,59,0.00,,,0.34,0,Wunderground v.1.15,2013-01-31 11:20:00,
2013-01-31 06:26:00,41.2,28.4,29.52,WSW,246,9.0,9.0,60,0.00,,,0.34,0,Wunderground v.1.15,2013-01-31 11:26:00,
2013-01-31 06:32:00,40.9,28.1,29.52,WSW,237,7.0,7.0,60,0.00,,,0.34,0,Wunderground v.1.15,2013-01-31 11:32:00,
2013-01-31 06:40:00,40.5,28.1,29.53,NW,314,7.0,13.0,61,0.00,,,0.35,0,Wunderground v.1.15,2013-01-31 11:40:00,
2013-01-31 06:46:00,40.3,27.9,29.54,West,262,6.0,13.0,61,0.00,,,0.35,0,Wunderground v.1.15,2013-01-31 11:46:00,
2013-01-31 06:52:00,40.0,27.6,29.54,WSW,250,6.0,7.0,61,0.00,,,0.35,0,Wunderground v.1.15,2013-01-31 11:52:00,
2013-01-31 06:59:00,39.6,28.0,29.55,NW,311,5.0,9.0,63,0.00,,,0.35,0,Wunderground v.1.15,2013-01-31 11:59:00,
2013-01-31 07:04:00,39.7,27.3,29.56,WSW,250,7.0,10.0,61,0.00,,,0.36,0,Wunderground v.1.15,2013-01-31 12:04:00,
2013-01-31 07:10:00,39.4,27.5,29.56,WSW,255,7.0,15.0,62,0.00,,,0.36,0,Wunderground v.1.15,2013-01-31 12:10:00,
2013-01-31 07:16:00,39.3,26.6,29.57,WNW,286,9.0,15.0,60,0.00,,,0.36,0,Wunderground v.1.15,2013-01-31 12:16:00,
2013-01-31 07:22:00,39.1,26.0,29.57,West,281,9.0,12.0,59,0.00,,,0.36,5,Wunderground v.1.15,2013-01-31 12:22:00,
2013-01-31 07:29:00,38.8,25.3,29.58,SW,217,8.0,12.0,58,0.00,,,0.37,9,Wunderground v.1.15,2013-01-31 12:29:00,
2013-01-31 07:34:00,38.7,25.2,29.58,WNW,284,8.0,10.0,58,0.00,,,0.37,11,Wunderground v.1.15,2013-01-31 12:34:00,
2013-01-31 07:40:00,38.6,24.7,29.59,SW,223,8.0,15.0,57,0.00,,,0.37,14,Wunderground v.1.15,2013-01-31 12:40:00,
2013-01-31 07:46:00,38.6,24.2,29.60,West,267,9.0,15.0,56,0.00,,,0.37,16,Wunderground v.1.15,2013-01-31 12:46:00,
2013-01-31 07:52:00,38.4,24.1,29.60,WSW,257,7.0,9.0,56,0.00,,,0.37,18,Wunderground v.1.15,2013-01-31 12:52:00,
2013-01-31 07:59:00,38.3,24.4,29.61,SW,227,7.0,9.0,57,0.00,,,0.38,21,Wunderground v.1.15,2013-01-31 12:59:00,
2013-01-31 08:04:00,38.4,23.6,29.62,WSW,242,7.0,7.0,55,0.00,,,0.38,21,Wunderground v.1.15,2013-01-31 13:04:00,
2013-01-31 08:10:00,38.4,24.5,29.63,WNW,294,7.0,10.0,57,0.00,,,0.38,23,Wunderground v.1.15,2013-01-31 13:10:00,
2013-01-31 08:16:00,38.6,23.8,29.63,NW,325,7.0,10.0,55,0.00,,,0.38,40,Wunderground v.1.15,2013-01-31 13:16:00,
2013-01-31 08:22:00,38.7,24.8,29.63,WNW,292,7.0,8.0,57,0.00,,,0.39,146,Wunderground v.1.15,2013-01-31 13:22:00,
2013-01-31 08:29:00,39.0,24.2,29.64,WSW,241,7.0,8.0,55,0.00,,,0.39,174,Wunderground v.1.15,2013-01-31 13:29:00,
2013-01-31 08:34:00,39.1,24.3,29.64,SSW,212,6.0,9.0,55,0.00,,,0.39,190,Wunderground v.1.15,2013-01-31 13:34:00,
2013-01-31 08:40:00,39.2,23.9,29.65,WNW,295,6.0,10.0,54,0.00,,,0.39,213,Wunderground v.1.15,2013-01-31 13:40:00,
2013-01-31 08:46:00,39.4,23.7,29.65,West,263,8.0,11.0,53,0.00,,,0.39,232,Wunderground v.1.15,2013-01-31 13:46:00,
2013-01-31 08:52:00,39.5,23.3,29.66,SW,226,9.0,9.0,52,0.00,,,0.40,251,Wunderground v.1.15,2013-01-31 13:52:00,
2013-01-31 08:59:00,39.7,23.5,29.65,WSW,242,7.0,9.0,52,0.00,,,0.40,271,Wunderground v.1.15,2013-01-31 13:59:00,
2013-01-31 09:06:00,39.8,24.5,29.66,West,273,6.0,14.0,54,0.00,,,0.40,292,Wunderground v.1.15,2013-01-31 14:06:00,
2013-01-31 09:12:00,39.8,23.6,29.67,NNW,348,6.0,6.0,52,0.00,,,0.41,309,Wunderground v.1.15,2013-01-31 14:12:00,
2013-01-31 09:19:00,39.9,22.7,29.67,SW,220,6.0,7.0,50,0.00,,,0.41,330,Wunderground v.1.15,2013-01-31 14:19:00,
2013-01-31 09:24:00,40.1,23.4,29.68,WSW,257,6.0,8.0,51,0.00,,,0.41,346,Wunderground v.1.15,2013-01-31 14:24:00,
2013-01-31 09:30:00,40.3,23.1,29.69,West,269,7.0,7.0,50,0.00,,,0.41,366,Wunderground v.1.15,2013-01-31 14:30:00,
2013-01-31 09:36:00,40.6,23.4,29.70,SW,226,6.0,7.0,50,0.00,,,0.41,387,Wunderground v.1.15,2013-01-31 14:36:00,
2013-01-31 09:42:00,40.4,23.7,29.70,SW,228,7.0,9.0,51,0.00,,,0.41,411,Wunderground v.1.15,2013-01-31 14:42:00,
2013-01-31 09:50:00,40.7,23.5,29.71,SW,234,6.0,6.0,50,0.00,,,0.42,450,Wunderground v.1.15,2013-01-31 14:50:00,
2013-01-31 09:56:00,40.0,22.4,29.71,WNW,285,9.0,12.0,49,0.00,,,0.42,431,Wunderground v.1.15,2013-01-31 14:56:00,
2013-01-31 10:02:00,40.5,24.2,29.71,West,266,9.0,9.0,52,0.00,,,0.42,443,Wunderground v.1.15,2013-01-31 15:02:00,
2013-01-31 10:09:00,40.8,23.6,29.71,SW,227,7.0,9.0,50,0.00,,,0.42,462,Wunderground v.1.15,2013-01-31 15:09:00,
2013-01-31 10:14:00,40.9,23.2,29.71,WSW,242,7.0,7.0,49,0.00,,,0.43,482,Wunderground v.1.15,2013-01-31 15:14:00,
2013-01-31 10:20:00,40.8,24.1,29.72,WSW,243,8.0,8.0,51,0.00,,,0.43,550,Wunderground v.1.15,2013-01-31 15:20:00,
2013-01-31 10:26:00,40.2,24.0,29.73,SW,218,8.0,17.0,52,0.00,,,0.43,132,Wunderground v.1.15,2013-01-31 15:26:00,
2013-01-31 10:32:00,40.9,23.7,29.72,SW,225,8.0,12.0,50,0.00,,,0.43,615,Wunderground v.1.15,2013-01-31 15:32:00,
2013-01-31 10:39:00,42.0,24.7,29.73,NW,306,8.0,12.0,50,0.00,,,0.43,626,Wunderground v.1.15,2013-01-31 15:39:00,
2013-01-31 10:46:00,41.3,22.6,29.73,West,278,7.0,11.0,47,0.00,,,0.44,541,Wunderground v.1.15,2013-01-31 15:46:00,
2013-01-31 10:52:00,41.2,23.0,29.74,WSW,240,7.0,16.0,48,0.00,,,0.44,550,Wunderground v.1.15,2013-01-31 15:52:00,
2013-01-31 10:59:00,41.2,22.0,29.74,SW,225,9.0,16.0,46,0.00,,,0.44,566,Wunderground v.1.15,2013-01-31 15:59:00,
2013-01-31 11:06:00,41.3,22.6,29.74,SSW,211,8.0,11.0,47,0.00,,,0.44,471,Wunderground v.1.15,2013-01-31 16:06:00,
2013-01-31 11:12:00,41.4,22.1,29.74,SW,231,7.0,12.0,46,0.00,,,0.44,589,Wunderground v.1.15,2013-01-31 16:12:00,
2013-01-31 11:19:00,41.2,22.0,29.74,WNW,287,8.0,12.0,46,0.00,,,0.45,589,Wunderground v.1.15,2013-01-31 16:19:00,
2013-01-31 11:24:00,41.6,23.8,29.74,West,280,7.0,8.0,49,0.00,,,0.45,694,Wunderground v.1.15,2013-01-31 16:24:00,
2013-01-31 11:30:00,40.5,22.8,29.74,SW,225,7.0,11.0,49,0.00,,,0.45,185,Wunderground v.1.15,2013-01-31 16:30:00,
2013-01-31 11:36:00,40.4,22.2,29.74,WSW,240,8.0,11.0,48,0.00,,,0.45,274,Wunderground v.1.15,2013-01-31 16:36:00,
2013-01-31 11:42:00,41.4,22.1,29.75,WSW,245,7.0,7.0,46,0.00,,,0.45,179,Wunderground v.1.15,2013-01-31 16:42:00,
2013-01-31 11:49:00,40.3,22.6,29.75,WSW,242,7.0,13.0,49,0.00,,,0.45,137,Wunderground v.1.15,2013-01-31 16:49:00,
2013-01-31 11:54:00,41.3,23.1,29.75,West,265,7.0,9.0,48,0.00,,,0.46,691,Wunderground v.1.15,2013-01-31 16:54:00,
2013-01-31 12:00:00,40.4,21.2,29.74,NNW,330,7.0,7.0,46,0.00,,,0.46,109,Wunderground v.1.15,2013-01-31 17:00:00,
2013-01-31 12:06:00,40.6,21.9,29.74,WSW,240,7.0,13.0,47,0.00,,,0.46,207,Wunderground v.1.15,2013-01-31 17:06:00,
2013-01-31 12:12:00,40.9,22.2,29.75,South,189,9.0,13.0,47,0.00,,,0.46,111,Wunderground v.1.15,2013-01-31 17:12:00,
2013-01-31 12:20:00,40.2,21.6,29.75,West,272,7.0,7.0,47,0.00,,,0.46,179,Wunderground v.1.15,2013-01-31 17:20:00,
2013-01-31 12:26:00,41.5,23.2,29.74,WSW,254,7.0,7.0,48,0.00,,,0.47,671,Wunderground v.1.15,2013-01-31 17:26:00,
2013-01-31 12:32:00,42.3,24.0,29.74,West,271,8.0,8.0,48,0.00,,,0.47,649,Wunderground v.1.15,2013-01-31 17:32:00,
2013-01-31 12:39:00,41.4,23.2,29.74,SW,220,9.0,9.0,48,0.00,,,0.47,631,Wunderground v.1.15,2013-01-31 17:39:00,
2013-01-31 12:46:00,42.5,25.6,29.73,SSW,209,7.0,11.0,51,0.00,,,0.47,754,Wunderground v.1.15,2013-01-31 17:46:00,
2013-01-31 12:52:00,43.2,26.7,29.74,WSW,250,7.0,11.0,52,0.00,,,0.47,761,Wunderground v.1.15,2013-01-31 17:52:00,
2013-01-31 12:59:00,42.5,25.1,29.73,WSW,253,8.0,11.0,50,0.00,,,0.47,759,Wunderground v.1.15,2013-01-31 17:59:00,
2013-01-31 13:06:00,42.1,24.3,29.74,WNW,290,10.0,13.0,49,0.00,,,0.47,795,Wunderground v.1.15,2013-01-31 18:06:00,
2013-01-31 13:12:00,43.0,25.1,29.74,West,265,9.0,10.0,49,0.00,,,0.48,698,Wunderground v.1.15,2013-01-31 18:12:00,
2013-01-31 13:19:00,42.5,24.2,29.74,West,272,8.0,11.0,48,0.00,,,0.48,638,Wunderground v.1.15,2013-01-31 18:19:00,
2013-01-31 13:24:00,42.2,23.9,29.74,WNW,294,9.0,11.0,48,0.00,,,0.48,622,Wunderground v.1.15,2013-01-31 18:24:00,
2013-01-31 13:30:00,41.8,22.0,29.74,NW,305,11.0,11.0,45,0.00,,,0.48,657,Wunderground v.1.15,2013-01-31 18:30:00,
2013-01-31 13:36:00,42.1,21.7,29.74,West,273,11.0,14.0,44,0.00,,,0.48,617,Wunderground v.1.15,2013-01-31 18:36:00,
2013-01-31 13:42:00,42.7,21.2,29.74,SSW,207,10.0,13.0,42,0.00,,,0.48,633,Wunderground v.1.15,2013-01-31 18:42:00,
2013-01-31 13:49:00,42.8,21.8,29.75,SW,236,9.0,16.0,43,0.00,,,0.49,831,Wunderground v.1.15,2013-01-31 18:49:00,
2013-01-31 13:56:00,42.1,20.1,29.73,West,273,11.0,11.0,41,0.00,,,0.49,654,Wunderground v.1.15,2013-01-31 18:56:00,
2013-01-31 14:02:00,41.9,19.9,29.75,SW,232,11.0,14.0,41,0.00,,,0.49,626,Wunderground v.1.15,2013-01-31 19:02:00,
2013-01-31 14:09:00,42.2,20.7,29.76,WSW,248,10.0,14.0,42,0.00,,,0.49,624,Wunderground v.1.15,2013-01-31 19:09:00,
2013-01-31 14:14:00,41.9,19.9,29.76,WSW,242,9.0,17.0,41,0.00,,,0.49,160,Wunderground v.1.15,2013-01-31 19:14:00,
2013-01-31 14:20:00,42.5,21.0,29.76,SW,218,11.0,16.0,42,0.00,,,0.49,577,Wunderground v.1.15,2013-01-31 19:20:00,
2013-01-31 14:26:00,42.7,20.0,29.76,WSW,257,11.0,16.0,40,0.00,,,0.49,624,Wunderground v.1.15,2013-01-31 19:26:00,
2013-01-31 14:32:00,43.3,20.6,29.77,NNW,340,8.0,11.0,40,0.00,,,0.49,561,Wunderground v.1.15,2013-01-31 19:32:00,
2013-01-31 14:39:00,41.1,18.6,29.77,West,267,9.0,12.0,40,0.00,,,0.50,148,Wunderground v.1.15,2013-01-31 19:39:00,
2013-01-31 14:46:00,41.3,19.9,29.78,West,265,8.0,11.0,42,0.00,,,0.50,543,Wunderground v.1.15,2013-01-31 19:46:00,
2013-01-31 14:52:00,41.4,18.9,29.78,West,261,7.0,7.0,40,0.00,,,0.50,464,Wunderground v.1.15,2013-01-31 19:52:00,
2013-01-31 14:59:00,40.6,19.3,29.78,West,276,6.0,7.0,42,0.00,,,0.50,100,Wunderground v.1.15,2013-01-31 19:59:00,
2013-01-31 15:04:00,39.5,18.3,29.79,West,263,7.0,12.0,42,0.00,,,0.50,125,Wunderground v.1.15,2013-01-31 20:04:00,
2013-01-31 15:10:00,39.5,18.8,29.80,WNW,288,7.0,7.0,43,0.00,,,0.50,97,Wunderground v.1.15,2013-01-31 20:10:00,
2013-01-31 15:16:00,40.0,18.7,29.81,South,184,7.0,10.0,42,0.00,,,0.50,388,Wunderground v.1.15,2013-01-31 20:16:00,
2013-01-31 15:22:00,40.7,19.9,29.81,WSW,246,7.0,8.0,43,0.00,,,0.50,399,Wunderground v.1.15,2013-01-31 20:22:00,
2013-01-31 15:29:00,40.0,18.7,29.80,WNW,290,7.0,9.0,42,0.00,,,0.51,206,Wunderground v.1.15,2013-01-31 20:29:00,
2013-01-31 15:34:00,39.8,19.6,29.81,WSW,250,6.0,7.0,44,0.00,,,0.51,318,Wunderground v.1.15,2013-01-31 20:34:00,
2013-01-31 15:40:00,40.0,19.3,29.81,NE,38,6.0,8.0,43,0.00,,,0.51,95,Wunderground v.1.15,2013-01-31 20:40:00,
2013-01-31 15:46:00,39.1,18.5,29.81,WSW,241,6.0,12.0,43,0.00,,,0.51,148,Wunderground v.1.15,2013-01-31 20:46:00,
2013-01-31 15:52:00,38.7,19.7,29.82,West,273,6.0,12.0,46,0.00,,,0.51,121,Wunderground v.1.15,2013-01-31 20:52:00,
2013-01-31 16:00:00,38.6,18.5,29.82,WSW,241,4.0,4.0,44,0.00,,,0.51,88,Wunderground v.1.15,2013-01-31 21:00:00,
2013-01-31 16:06:00,38.8,20.3,29.83,NW,311,3.0,7.0,47,0.00,,,0.51,111,Wunderground v.1.15,2013-01-31 21:06:00,
2013-01-31 16:12:00,38.6,18.0,29.83,WSW,250,5.0,5.0,43,0.00,,,0.51,72,Wunderground v.1.15,2013-01-31 21:12:00,
2013-01-31 16:19:00,38.2,19.2,29.84,West,271,7.0,10.0,46,0.00,,,0.51,90,Wunderground v.1.15,2013-01-31 21:19:00,
2013-01-31 16:26:00,38.6,19.1,29.84,WSW,252,7.0,11.0,45,0.00,,,0.51,220,Wunderground v.1.15,2013-01-31 21:26:00,